Location: Briis
(48.6240°N, 2.1211°E)
Time: 15:36:16
(UTC+00:00)

Spot 4 Rocket - Pass Details

Date: 25 September 2020
Orbit: 775 x 782 km, 98.7° (Epoch: 21 October)

Event Time Altitude Azimuth Distance (km) Brightness Sun altitude
Rises 02:52:12 0° 17° (NNE) 3,271 8.0 -27.5°
Reaches altitude 10° 02:54:34 10° 21° (NNE) 2,338 7.2 -27.2°
Maximum altitude 02:59:40 59° 101° (ESE) 897 4.4 -26.5°
Enters shadow 03:01:00 44° 154° (SSE) 1,059 4.6 -26.3°
